Wind_Speed
24 25 26 27 28 29 29 30 31 31 32 32 33 33 33 34 35 36 37 37 38 39 39 39 39 40 40 41 41 41 41 41 42 43 43 44 44 45 45 45 45 45 45 45
24 25 26 28 28 29 29 29 30 31 32 33 33 34 35 35 35 36 37 37 38 39 39 40 40 40 40 41 41 42 42 42 42 43 44 44 45 45 44 45 45 46 46 46
25 26 27 28 29 29 28 29 31 32 33 34 35 35 35 36 36 37 38 38 38 39 40 41 41 41 41 41 42 42 42 42 42 43 43 44 44 45 46 45 45 46 47 47
25 26 27 28 29 30 30 30 31 32 34 35 35 37 35 36 36 36 37 37 38 39 40 41 41 41 41 42 42 42 42 42 42 42 42 43 44 45 46 47 47 46 47 48
25 25 26 28 28 29 30 30 30 31 33 35 35 37 36 35 36 36 37 38 38 39 39 40 41 41 42 42 42 42 41 41 42 42 43 43 44 45 46 46 47 48 48 49
24 25 26 27 28 29 29 30 31 32 33 35 35 37 37 36 36 37 37 38 38 38 39 40 41 41 42 43 43 42 42 42 42 43 43 44 45 46 46 47 48 49 49 49
24 25 25 26 27 29 29 30 32 34 34 35 35 37 38 37 37 37 38 38 38 39 39 39 40 41 42 43 43 43 43 43 42 43 44 44 45 46 47 47 47 48 49 50
25 25 26 26 27 29 29 31 32 34 35 35 35 36 36 36 36 37 37 38 38 39 40 40 41 41 42 42 43 43 43 43 43 44 44 45 45 45 46 47 48 48 48 49
25 26 26 27 27 29 30 30 31 33 35 36 36 35 35 35 35 35 36 37 37 39 40 40 41 41 42 42 42 42 43 44 44 44 44 45 45 46 47 48 48 49 48 49
27 27 27 27 29 29 30 31 32 33 34 36 35 34 34 34 34 34 35 36 37 38 39 40 40 40 41 41 42 42 43 44 45 45 45 45 46 46 47 48 48 48 49 49
27 28 28 29 29 30 29 30 31 33 34 35 35 34 33 34 34 35 35 36 37 37 38 38 39 40 40 41 42 43 44 44 44 45 45 46 46 46 46 46 47 48 48 49
28 29 30 30 30 31 31 31 31 32 33 34 35 33 33 34 35 35 36 36 37 37 37 37 37 38 39 40 41 42 43 43 43 44 44 45 45 45 45 45 46 46 47 48
29 30 31 31 31 31 31 31 32 33 34 34 35 33 34 35 36 36 36 37 36 36 36 36 36 37 38 39 40 40 41 41 42 42 42 43 43 44 44 44 44 45 46 47
29 30 30 31 31 31 31 31 32 34 35 35 34 34 34 36 36 36 36 36 36 35 35 36 36 37 37 38 39 40 40 40 41 41 42 42 42 43 43 44 44 44 45 46
30 32 31 31 32 32 32 32 32 33 34 36 35 35 34 35 35 36 36 35 35 35 35 36 36 36 37 37 38 38 38 38 39 40 40 41 41 42 43 43 44 44 44 45
31 32 32 32 32 33 33 32 33 34 34 34 35 34 34 35 34 34 35 35 35 35 35 36 36 36 36 37 37 37 37 37 38 39 40 40 41 41 42 43 43 44 44 45
30 30 31 32 32 33 33 32 33 33 34 34 34 33 33 33 34 34 34 34 35 35 35 35 35 36 36 36 37 36 36 37 38 38 39 40 41 41 42 42 43 43 44 44
29 30 31 32 32 33 32 32 32 33 32 33 33 33 33 33 33 33 33 33 34 35 35 35 35 35 36 36 36 36 36 37 37 38 39 39 40 41 42 42 43 43 44 44
28 29 31 32 33 34 32 31 32 33 32 32 33 32 33 33 33 34 34 34 34 34 34 35 35 35 36 36 37 37 37 37 38 38 38 38 39 40 40 41 42 42 43 43
29 29 30 31 33 33 32 32 32 33 33 32 32 32 32 32 33 33 34 34 34 35 34 34 35 35 35 36 36 37 37 38 38 38 39 39 39 40 40 41 42 42 43 43
30 31 31 31 32 33 32 32 32 32 33 33 33 33 33 33 33 33 34 34 35 35 35 35 35 35 35 35 36 37 37 38 38 39 39 40 40 40 41 41 42 42 43 43
32 32 32 32 32 32 32 33 32 32 32 32 32 32 33 33 34 34 35 35 36 36 36 36 36 36 36 36 36 37 37 38 38 39 39 40 40 40 41 41 41 41 42 42
32 32 32 32 32 32 32 33 32 32 32 31 31 31 32 34 34 35 35 35 35 36 36 37 37 37 37 36 37 37 37 38 38 38 38 39 39 39 39 40 40 40 41 41
33 33 33 33 32 33 33 33 32 32 32 32 32 33 34 34 34 35 35 35 35 36 36 36 36 36 37 37 37 37 37 37 37 38 38 38 39 38 38 38 39 39 39 39
34 34 33 33 33 33 33 33 32 33 33 33 33 33 33 34 34 34 34 35 35 35 35 35 35 35 36 35 35 35 35 36 36 36 37 37 37 37 37 37 38 38 38 38
33 34 34 34 34 34 33 33 33 33 33 34 34 33 33 33 34 34 35 35 35 35 34 34 34 34 34 34 34 34 34 34 34 34 34 34 35 35 36 36 36 36 36 37
Wind_Direction
254 254 254 256 258 259 262 262 261 260 261 261 262 262 263 263 262 262 263 264 264 265 265 266 267 268 269 269 269 269 268 269 269 268 267 266 264 263 263 261 260 259 258 258
256 257 257 257 259 261 263 264 264 263 263 263 263 263 263 264 264 264 264 264 265 266 266 266 267 268 269 269 270 270 270 269 270 269 267 266 264 263 263 262 261 259 258 258
260 260 259 259 259 262 265 266 266 265 265 265 265 264 264 265 266 266 265 266 266 267 267 267 268 269 269 270 270 270 270 269 269 268 268 266 265 264 263 262 261 260 259 258
264 264 262 262 262 264 266 267 268 267 267 267 267 267 265 266 267 268 268 268 268 268 268 269 269 270 270 270 270 270 270 270 269 269 268 267 266 265 264 263 262 261 260 259
268 269 266 265 265 267 269 269 270 270 269 269 268 269 268 268 269 269 270 270 269 269 269 270 270 270 270 270 269 269 269 270 269 269 269 267 266 265 265 264 263 263 262 260
272 271 270 268 267 268 270 270 271 272 271 270 270 270 270 270 271 271 271 271 270 270 271 271 271 271 270 269 268 268 269 269 270 269 268 267 266 266 266 265 265 264 263 263
273 273 272 271 271 270 271 272 274 274 274 273 272 271 271 271 272 272 272 272 272 272 273 274 273 272 271 269 267 268 269 270 270 270 269 268 267 267 266 266 265 264 263 263
276 275 275 274 274 274 273 273 274 276 277 276 274 273 274 273 273 273 273 273 273 273 273 274 274 273 272 270 268 268 269 270 271 271 270 269 268 267 267 266 265 264 263 262
279 278 277 278 278 277 276 274 275 276 277 277 276 275 275 275 275 275 275 275 275 275 275 275 275 274 272 270 269 269 270 271 272 272 271 269 268 268 268 267 267 265 264 263
279 280 279 280 281 279 278 278 277 276 277 278 278 277 278 277 277 277 277 277 277 276 276 277 276 275 273 272 270 270 271 272 272 271 271 270 269 270 270 269 268 267 265 264
281 280 281 282 282 281 279 278 277 275 275 277 278 279 279 279 278 277 278 279 279 279 278 278 277 276 274 273 272 272 272 272 272 272 271 270 270 270 271 271 270 267 266 265
283 282 283 283 283 282 280 279 277 276 276 276 277 279 279 279 279 279 280 281 281 280 279 279 278 277 276 275 274 274 274 273 273 272 272 271 270 270 271 271 270 269 268 267
284 284 285 285 284 283 282 280 277 275 275 275 275 279 280 280 280 281 282 283 282 281 281 280 279 278 277 276 275 275 275 274 273 272 272 271 270 270 270 270 270 269 268 268
284 284 284 285 285 284 284 281 278 276 274 275 277 279 280 280 282 283 283 282 282 282 281 281 281 280 279 279 278 277 275 274 273 273 273 272 271 270 271 270 270 270 269 268
285 286 285 284 283 283 283 282 280 278 277 278 279 280 280 280 282 283 282 282 282 282 281 282 281 280 280 280 279 277 276 274 274 274 274 273 272 272 271 271 271 271 270 270
290 290 289 286 284 284 283 283 283 280 280 280 281 281 281 281 281 282 281 281 282 281 281 282 282 281 280 280 280 279 277 275 275 276 276 275 274 273 272 273 272 271 271 271
293 292 291 290 288 286 283 284 283 282 281 280 281 282 282 283 281 282 282 282 281 281 282 281 282 281 281 281 281 280 278 277 277 278 278 277 276 275 274 274 273 272 272 272
294 294 293 291 290 288 289 286 283 282 282 281 281 281 281 282 282 281 282 283 282 282 281 281 281 281 281 280 280 280 279 279 279 279 279 279 277 276 275 275 274 274 273 273
295 295 295 294 292 291 290 288 285 283 282 282 281 280 280 281 281 280 280 281 282 282 282 282 281 281 281 280 280 280 280 280 280 280 280 281 280 278 276 276 276 275 274 274
294 295 296 295 294 294 294 292 288 285 282 283 283 281 280 280 280 281 281 282 282 283 283 283 282 282 282 280 280 280 281 281 280 281 281 281 281 280 278 277 277 277 276 275
294 294 294 295 294 295 296 294 292 288 287 286 284 282 280 281 282 282 282 282 282 283 283 283 283 283 282 282 282 282 283 283 282 282 282 282 282 281 280 279 278 278 277 276
293 293 294 294 294 296 296 294 292 291 289 287 285 284 282 281 283 283 283 283 283 283 282 282 282 282 283 283 284 284 284 284 284 284 283 282 282 281 280 280 279 279 279 278
292 293 294 295 296 295 295 294 294 293 290 289 288 286 284 283 283 284 283 283 284 284 283 283 283 282 283 283 284 285 285 285 285 285 284 283 283 282 282 281 281 280 279 279
292 291 292 293 295 294 293 293 294 293 292 291 289 287 286 284 283 283 284 285 285 285 285 284 284 284 284 284 284 285 285 285 285 285 285 284 283 283 282 282 282 281 281 280
293 292 292 291 291 290 291 291 292 292 292 292 291 289 287 285 283 284 285 286 286 285 286 286 285 285 284 284 284 285 285 285 286 286 286 285 284 283 282 282 282 281 281 281
293 293 292 291 290 290 290 290 290 291 291 291 290 289 288 286 285 285 285 286 287 287 286 286 286 286 285 285 284 284 284 285 286 287 287 287 287 286 284 284 284 283 282 281
Height
5711 5713 5713 5714 5714 5714 5714 5715 5715 5715 5715 5715 5716 5716 5716 5716 5716 5716 5716 5715 5715 5714 5714 5713 5712 5712 5711 5710 5709 5708 5707 5706 5704 5703 5702 5701 5700 5699 5699 5700 5701 5702 5703 5704
5705 5705 5706 5706 5706 5706 5706 5706 5707 5707 5707 5707 5707 5707 5707 5707 5707 5706 5706 5705 5705 5704 5703 5702 5702 5701 5700 5699 5697 5696 5695 5694 5692 5691 5689 5688 5687 5687 5687 5687 5688 5689 5691 5692
5698 5699 5698 5698 5698 5698 5698 5698 5698 5698 5697 5697 5697 5698 5699 5698 5697 5696 5696 5695 5694 5694 5693 5692 5691 5690 5689 5687 5685 5684 5682 5681 5680 5678 5677 5676 5675 5674 5675 5675 5675 5676 5677 5679
5691 5691 5691 5690 5690 5690 5690 5690 5689 5689 5688 5687 5688 5687 5689 5688 5687 5687 5686 5685 5684 5683 5682 5680 5680 5678 5677 5675 5673 5672 5670 5669 5668 5666 5665 5664 5663 5662 5662 5662 5663 5663 5664 5666
5684 5684 5683 5683 5683 5682 5682 5681 5680 5679 5678 5678 5678 5676 5679 5678 5677 5677 5676 5674 5673 5672 5670 5669 5668 5666 5665 5663 5661 5660 5659 5657 5656 5654 5653 5652 5651 5650 5650 5650 5650 5650 5651 5652
5677 5676 5675 5675 5674 5674 5673 5673 5671 5670 5669 5668 5668 5666 5667 5667 5667 5666 5665 5663 5662 5660 5659 5658 5656 5655 5653 5651 5650 5649 5647 5646 5644 5643 5641 5640 5639 5638 5637 5637 5637 5637 5638 5639
5670 5669 5668 5667 5666 5665 5665 5664 5662 5660 5658 5658 5658 5656 5657 5657 5656 5655 5654 5652 5651 5649 5648 5646 5645 5643 5641 5639 5638 5637 5635 5634 5632 5630 5629 5627 5626 5625 5624 5624 5624 5624 5624 5625
5662 5662 5660 5659 5658 5657 5656 5655 5654 5651 5649 5649 5647 5646 5647 5647 5645 5643 5642 5641 5639 5638 5636 5635 5633 5631 5629 5628 5626 5625 5624 5622 5620 5618 5616 5615 5613 5612 5611 5611 5610 5610 5611 5612
5654 5654 5653 5651 5650 5649 5647 5645 5644 5642 5639 5638 5637 5637 5637 5636 5634 5633 5631 5630 5628 5627 5625 5623 5621 5619 5617 5616 5614 5613 5612 5610 5608 5606 5604 5603 5601 5600 5599 5598 5597 5597 5597 5598
5646 5646 5645 5643 5642 5640 5639 5637 5635 5632 5629 5627 5627 5627 5627 5625 5624 5623 5621 5619 5617 5616 5613 5611 5609 5607 5605 5604 5603 5601 5600 5598 5596 5594 5592 5590 5589 5588 5586 5585 5585 5584 5584 5585
5639 5638 5637 5635 5633 5631 5630 5628 5625 5623 5621 5619 5617 5620 5618 5615 5613 5612 5610 5608 5607 5605 5602 5600 5598 5596 5594 5592 5591 5589 5587 5585 5583 5581 5580 5578 5577 5576 5574 5573 5572 5572 5572 5572
5630 5629 5627 5627 5625 5622 5620 5619 5617 5615 5613 5610 5608 5612 5608 5606 5603 5602 5600 5598 5596 5594 5591 5589 5587 5585 5583 5581 5579 5577 5575 5573 5571 5570 5568 5566 5565 5563 5562 5561 5560 5559 5559 5559
5622 5620 5618 5617 5617 5614 5612 5610 5608 5606 5603 5601 5599 5603 5599 5596 5593 5592 5590 5587 5585 5583 5581 5579 5576 5574 5572 5570 5567 5566 5563 5561 5559 5558 5556 5554 5553 5551 5550 5549 5548 5547 5547 5547
5613 5611 5610 5609 5606 5604 5602 5601 5598 5596 5593 5592 5591 5592 5589 5585 5583 5581 5579 5577 5575 5573 5571 5568 5566 5564 5561 5559 5556 5554 5552 5550 5548 5546 5544 5543 5541 5540 5538 5537 5536 5535 5535 5534
5604 5602 5601 5599 5596 5594 5592 5591 5588 5585 5584 5582 5582 5580 5579 5575 5573 5571 5568 5566 5564 5562 5560 5558 5555 5553 5551 5548 5546 5543 5541 5539 5537 5535 5533 5531 5530 5528 5527 5525 5524 5523 5523 5522
5595 5593 5591 5589 5587 5584 5582 5581 5578 5576 5574 5572 5571 5570 5568 5565 5563 5560 5558 5556 5554 5552 5550 5547 5545 5542 5540 5537 5535 5532 5530 5528 5526 5524 5522 5520 5518 5517 5515 5514 5512 5511 5510 5510
5587 5584 5581 5579 5577 5574 5572 5572 5569 5566 5564 5562 5560 5560 5557 5555 5553 5550 5548 5546 5544 5542 5540 5537 5535 5532 5530 5527 5525 5522 5520 5518 5516 5513 5511 5509 5507 5505 5504 5502 5501 5499 5498 5497
5578 5575 5572 5569 5567 5564 5566 5562 5559 5556 5554 5552 5550 5549 5547 5545 5542 5540 5538 5536 5534 5532 5529 5527 5525 5522 5519 5517 5514 5512 5510 5507 5505 5503 5500 5498 5496 5494 5492 5490 5489 5487 5486 5485
5570 5566 5563 5560 5556 5554 5554 5552 5548 5546 5545 5542 5540 5538 5536 5534 5532 5530 5528 5526 5524 5521 5519 5517 5514 5512 5509 5506 5504 5502 5499 5497 5494 5492 5489 5487 5485 5482 5480 5479 5477 5475 5474 5473
5561 5558 5555 5550 5546 5544 5545 5542 5538 5536 5534 5533 5530 5528 5526 5524 5522 5521 5518 5515 5513 5511 5509 5506 5504 5501 5498 5496 5494 5491 5489 5486 5483 5481 5479 5476 5474 5471 5469 5467 5465 5463 5462 5460
5552 5548 5545 5541 5537 5535 5535 5531 5528 5527 5526 5522 5519 5517 5516 5513 5512 5510 5507 5505 5503 5501 5498 5496 5493 5491 5488 5485 5483 5481 5478 5475 5472 5470 5467 5465 5462 5460 5457 5455 5453 5451 5449 5447
5542 5539 5536 5533 5529 5530 5525 5521 5519 5517 5514 5511 5509 5507 5505 5503 5501 5499 5496 5494 5492 5490 5487 5485 5482 5480 5477 5474 5472 5470 5467 5464 5461 5458 5456 5453 5450 5448 5445 5443 5441 5439 5436 5435
5533 5531 5527 5525 5524 5520 5515 5512 5509 5506 5504 5501 5499 5496 5494 5492 5490 5488 5486 5483 5481 5478 5476 5473 5471 5469 5466 5463 5461 5458 5456 5453 5450 5447 5444 5441 5438 5436 5433 5431 5429 5426 5424 5422
5523 5520 5517 5515 5513 5510 5506 5502 5499 5496 5494 5491 5489 5487 5484 5482 5480 5477 5475 5472 5470 5467 5465 5462 5460 5457 5455 5452 5450 5447 5444 5441 5438 5435 5432 5430 5427 5424 5421 5419 5417 5414 5412 5410
5513 5509 5506 5504 5503 5499 5496 5493 5490 5487 5484 5481 5479 5476 5474 5471 5469 5467 5464 5462 5459 5456 5454 5451 5448 5446 5443 5441 5438 5436 5433 5430 5427 5424 5421 5418 5415 5412 5410 5407 5405 5402 5400 5397
5503 5500 5496 5494 5492 5489 5487 5483 5480 5477 5474 5471 5469 5466 5463 5461 5459 5456 5453 5451 5448 5446 5443 5440 5438 5435 5432 5430 5427 5425 5422 5419 5416 5413 5410 5407 5404 5401 5398 5396 5393 5390 5388 5385